Regional Weather Roundup
Issued by NWS

Home | Current Version | Previous Version | Graphics & Text | Print | Product List | Glossary On
Versions: 1 2 3 4 5 6 7 8 9 10 11 12 13 14 15 16 17 18 19 20 21 22 23 24 25 26 27 28 29 30 31 32 33 34 35 36 37 38 39 40 41 42 43 44 45 46 47 48 49 50
000
ASUS45 KABQ 261501
RWRNM
WEATHER ROUNDUP FOR NEW MEXICO
NATIONAL WEATHER SERVICE ALBUQUERQUE NM
900 AM MDT SAT JUL 26 2014

NOTE: "FAIR" MEANS FEW OR NO CLOUDS BELOW 12,000 FEET AGL WITH NO
       SIGNIFICANT WEATHER OR OBSTRUCTIONS TO VISION.

      THIS PRODUCT IS RELEASED AS TWO VERSIONS.  ONE VERSION NEAR
      THE TOP OF THE HOUR CONTAINING PRELIMINARY DATA FROM ALBUQUERQUE
      AND OTHER STATIONS.  A FINAL VERSION WITH ADDITIONAL DATA IS
      ISSUED ABOUT 10 MINUTES AFTER THE HOUR.

NMZ501-503-504-510>518-261600-
NORTHWEST PLATEAU/NORTHCENTRAL MOUNTAINS

CITY           SKY/WX    TMP DP  RH WIND       PRES   REMARKS
FARMINGTON     SUNNY     76  46  34 E5        30.23R
LOS ALAMOS     SUNNY     73  48  41 N5        30.37R
SANTA FE       SUNNY     76  49  38 N16       30.27S
TAOS           SUNNY     72  46  40 CALM      30.37S
ANGEL FIRE     FAIR      62  50  64 CALM      30.47S

$$
NMZ402-403-502-505>509-261600-
WESTCENTRAL MOUNTAINS/SOUTHWEST MOUNTAINS

CITY           SKY/WX    TMP DP  RH WIND       PRES   REMARKS
GALLUP         SUNNY     74  47  38 S5        30.33R
GRANTS         SUNNY     74  48  40 CALM      30.34S

$$
NMZ407-409-411-412-261600-
SOUTHERN DESERTS

CITY           SKY/WX    TMP DP  RH WIND       PRES   REMARKS
LORDSBURG      FAIR      79  55  44 NW10      30.13S
DEMING         SUNNY     80  55  42 CALM      30.11R
LAS CRUCES     SUNNY     83  46  26 E6        30.12S
HOLLOMAN AFB   SUNNY     82  45  27 NW3       30.09S
T OR C         SUNNY     84  47  27 SE3       30.14S

$$
NMZ519>523-261600-
CENTRAL VALLEYS/CENTRAL HIGHLANDS

CITY           SKY/WX    TMP DP  RH WIND       PRES   REMARKS
ALBUQUERQUE    MOSUNNY   80  47  31 CALM      30.21R
DOUBLE EAGLE   SUNNY     79  46  31 E9        30.25R
CLINES CORNERS SUNNY     77  42  28 NW13      30.31S
BELEN          FAIR      79  48  33 N3        30.20S
SOCORRO        FAIR      82  43  24 CALM      30.16S

$$
NMZ524>526-539-540-261600-
SOUTHCENTRAL MOUNTAINS

CITY           SKY/WX    TMP DP  RH WIND       PRES   REMARKS
RUIDOSO        NOT AVBL

$$
NMZ527>531-261600-
NORTHEAST HIGHLANDS/NORTHEAST PLAINS

CITY           SKY/WX    TMP DP  RH WIND       PRES   REMARKS
LAS VEGAS      SUNNY     76  51  41 N8        30.30R
RATON          SUNNY     75  53  46 E5        30.23S
CLAYTON        MOSUNNY   84  52  33 N7        30.12S

$$
NMZ532>537-261600-
EASTCENTRAL PLAINS

CITY           SKY/WX    TMP DP  RH WIND       PRES   REMARKS
TUCUMCARI      SUNNY     85  57  38 SW18G28   30.07S
CANNON AFB     SUNNY     80  60  50 SW9       30.13R
CLOVIS AIRPORT NOT AVBL

$$
NMZ028-029-538-261600-
SOUTHEAST PLAINS

CITY           SKY/WX    TMP DP  RH WIND       PRES   REMARKS
ROSWELL        SUNNY     82  60  47 S15       30.07S
ARTESIA        SUNNY     81  59  47 S10       30.07S
CARLSBAD       SUNNY     83  60  45 SE10      30.04S
HOBBS          SUNNY     79  61  53 SE9       30.10S


$$



USA.gov is the U.S. government's official web portal to all federal, state and local government web resources and services.